This demonstration page uses our WeatherBlox Daily Observations layout. Learn more.

Left ArrowRight Arrow

39.51506, -84.39828

Hourly Observations for January 8, 2019

Temp ( °F °C ) Dew Point ( °F °C ) Humidity (%) Winds ( mph kmh ) Pressure ( in mb ) Visibility ( mi km ) Precip ( " mm )
12:15 am 00:15 Cloudy 55 13 50 9.9 82 82 SSW 13 20 29.91 1013 10 16 0.00 0.00
12:35 am 00:35 Partly Cloudy 55 12.9 50 9.9 82 82 SSW 14 22 29.91 1013 10 16 0.00 0.00
12:55 am 00:55 Partly Cloudy 55 12.6 50 9.9 84 84 SSW 13 20 29.94 1014 10 16 0.00 0.00
1:15 am 01:15 Mostly Cloudy 55 12.8 50 10 83 83 SSW 14 22 29.94 1014 10 16 0.00 0.00
1:35 am 01:35 Mostly Cloudy 55 12.6 50 10 84 84 SSW 13 20 29.94 1014 10 16 0.00 0.00
1:55 am 01:55 Clear 54 12.4 50 10.1 86 86 SSW 14 22 29.94 1014 10 16 0.00 0.00
2:15 am 02:15 Partly Cloudy 54 12.2 50 10 87 87 SSW 14 22 29.94 1014 10 16 0.00 0.00
2:35 am 02:35 Clear 54 12.2 50 10 87 87 SSW 12 19 29.91 1013 10 16 0.00 0.00
2:55 am 02:55 Clear 54 12 50 10 88 88 SSW 12 19 29.94 1014 10 16 0.00 0.00
3:15 am 03:15 Partly Cloudy 53 11.6 50 10 90 90 S 9 15 29.91 1013 10 16 0.00 0.00
3:35 am 03:35 Cloudy 54 12.3 51 10.4 88 88 SSW 8 13 29.91 1013 10 16 0.00 0.00
3:55 am 03:55 Cloudy 54 12 50 10.1 88 88 SW 8 13 29.91 1013 10 16 0.00 0.00
4:15 am 04:15 Cloudy 54 12.4 51 10.4 88 88 SW 13 20 29.91 1013 10 16 0.00 0.00
4:35 am 04:35 Cloudy 55 12.5 51 10.4 87 87 SW 8 13 29.91 1013 10 16 0.00 0.00
4:55 am 04:55 Cloudy 54 12 51 10.3 89 89 SW 8 13 29.91 1013 10 16 0.00 0.00
5:15 am 05:15 Mostly Cloudy 52 11.2 49 9.7 91 91 SSW 7 11 29.88 1012 10 16 0.00 0.00
5:35 am 05:35 Cloudy 52 11.1 49 9.7 91 91 SW 6 9 29.88 1012 10 16 0.00 0.00
5:55 am 05:55 Cloudy 52 11.3 50 10 92 92 SSW 7 11 29.88 1012 10 16 0.00 0.00
6:15 am 06:15 Cloudy 53 11.7 50 10.2 91 91 S 7 11 29.88 1012 10 16 0.00 0.00
6:35 am 06:35 Cloudy 53 11.8 50 10.2 90 90 SSW 7 11 29.88 1012 10 16 0.00 0.00
6:55 am 06:55 Cloudy 53 11.9 51 10.3 90 90 SSW 9 15 29.88 1012 10 16 0.00 0.00
7:15 am 07:15 Cloudy 54 12.2 51 10.4 89 89 SSW 9 15 29.88 1012 10 16 0.00 0.00
7:35 am 07:35 Mostly Cloudy 53 11.8 50 10.1 89 89 SSW 9 15 29.88 1012 10 16 0.00 0.00
7:55 am 07:55 Partly Cloudy 54 12.1 50 10.2 88 88 S 10 17 29.85 1011 10 16 0.00 0.00
8:15 am 08:15 Partly Cloudy 54 12 50 10.2 89 89 SSW 12 19 29.88 1012 10 16 0.00 0.00
8:35 am 08:35 Mostly Cloudy 53 11.9 50 10.2 89 89 SSW 10 17 29.88 1012 10 16 0.00 0.00
8:55 am 08:55 Mostly Cloudy 54 12 50 10.1 88 88 SSW 10 17 29.88 1012 10 16 0.00 0.00
9:15 am 09:15 Partly Cloudy 54 12.3 50 10.2 87 87 SSW 12 19 29.88 1012 10 16 0.00 0.00
9:35 am 09:35 Partly Cloudy 56 13.1 51 10.3 83 83 SSW 16 26 29.85 1011 10 16 0.00 0.00
9:55 am 09:55 Mostly Cloudy 56 13.6 51 10.4 81 81 SW 15 24 29.85 1011 10 16 0.00 0.00
10:15 am 10:15 Partly Cloudy 56 13.3 50 9.8 80 80 SW 15 24 29.85 1011 10 16 0.00 0.00
10:35 am 10:35 Mostly Cloudy 57 14.1 49 9.7 75 75 SSW 18 30 29.83 1010 10 16 0.00 0.00
10:55 am 10:55 Mostly Cloudy 59 15 49 9.4 69 69 SW 25 41 29.83 1010 10 16 0.00 0.00
11:15 am 11:15 Partly Cloudy 60 15.4 48 8.7 65 65 SW 20 31 29.83 1010 10 16 0.00 0.00
11:35 am 11:35 Sunny 60 15.8 46 7.5 58 58 SW 20 31 29.80 1009 10 16 0.00 0.00
11:55 am 11:55 Sunny 61 16.1 44 6.8 54 54 SW 20 31 29.80 1009 10 16 0.00 0.00
12:15 pm 12:15 Sunny 62 16.4 42 5.3 48 48 SW 21 33 29.77 1008 10 16 0.00 0.00
12:35 pm 12:35 Sunny 63 17 42 5.6 47 47 SW 18 30 29.77 1008 10 16 0.00 0.00
12:55 pm 12:55 Mostly Cloudy 61 16.3 42 5.4 49 49 WSW 23 37 29.74 1007 10 16 0.00 0.00
1:15 pm 13:15 Partly Cloudy 60 15.4 41 4.8 49 49 SW 23 37 29.74 1007 10 16 0.00 0.00
1:35 pm 13:35 Partly Cloudy 62 16.9 40 4.4 44 44 SW 30 48 29.74 1007 10 16 0.00 0.00
1:55 pm 13:55 Cloudy 61 15.9 39 3.9 45 45 WSW 22 35 29.74 1007 10 16 0.00 0.00
2:15 pm 14:15 Partly Cloudy 60 15.6 40 4.2 47 47 W 20 31 29.74 1007 10 16 0.00 0.00
2:35 pm 14:35 Mostly Cloudy 61 16.3 38 3.4 42 42 W 23 37 29.77 1008 10 16 0.00 0.00
2:55 pm 14:55 Partly Cloudy 58 14.3 37 2.7 46 46 W 17 28 29.77 1008 10 16 0.00 0.00
3:15 pm 15:15 Partly Cloudy 57 14.1 36 2.3 45 45 W 22 35 29.80 1009 10 16 0.00 0.00
3:35 pm 15:35 Sunny 55 12.8 36 2.2 49 49 W 24 39 29.85 1011 10 16 0.00 0.00
3:55 pm 15:55 Partly Cloudy 53 11.5 36 2.2 53 53 W 24 39 29.85 1011 10 16 0.00 0.00
4:15 pm 16:15 Cloudy 51 10.5 34 1.3 53 53 W 21 33 29.88 1012 10 16 0.00 0.00
4:35 pm 16:35 Cloudy 50 9.9 35 1.7 57 57 W 15 24 29.88 1012 10 16 0.00 0.00
4:55 pm 16:55 Cloudy 49 9.2 35 1.9 61 61 W 21 33 29.91 1013 10 16 0.00 0.00
5:15 pm 17:15 Cloudy 48 8.9 35 1.7 61 61 W 22 35 29.91 1013 10 16 0.00 0.00
5:35 pm 17:35 Cloudy 48 8.7 35 1.5 61 61 W 18 30 29.94 1014 10 16 0.00 0.00
5:55 pm 17:55 Cloudy 47 8.5 35 1.4 61 61 WSW 15 24 29.94 1014 10 16 0.00 0.00
6:10 pm 18:10 Partly Cloudy 47 8.1 34 1.3 63 63 W 21 33 29.94 1014 10 16 0.00 0.00
6:35 pm 18:35 Partly Cloudy 46 7.8 34 1.1 63 63 W 21 33 29.97 1015 10 16 0.00 0.00
6:55 pm 18:55 Clear 45 7.4 32 0.2 61 61 W 21 33 29.97 1015 10 16 0.00 0.00
7:15 pm 19:15 Clear 45 7.1 30 -1.2 56 56 W 14 22 29.97 1015 10 16 0.00 0.00
7:35 pm 19:35 Clear 44 6.8 30 -1.1 57 57 W 16 26 30.00 1016 10 16 0.00 0.00
7:55 pm 19:55 Clear 44 6.6 28 -2.1 54 54 WSW 15 24 30.00 1016 10 16 0.00 0.00
8:15 pm 20:15 Clear 44 6.4 26 -3.5 50 50 W 14 22 30.00 1016 10 16 0.00 0.00
8:35 pm 20:35 Clear 43 6.1 24 -4.2 48 48 W 16 26 30.03 1017 10 16 0.00 0.00
8:55 pm 20:55 Clear 42 5.8 25 -4.1 49 49 WSW 13 20 30.03 1017 10 16 0.00 0.00
9:15 pm 21:15 Clear 42 5.7 24 -4.4 49 49 W 14 22 30.03 1017 10 16 0.00 0.00
9:35 pm 21:35 Clear 41 5.2 24 -4.2 51 51 WSW 12 19 30.03 1017 10 16 0.00 0.00
9:55 pm 21:55 Mostly Cloudy 42 5.3 25 -4 51 51 WSW 16 26 30.03 1017 10 16 0.00 0.00
10:15 pm 22:15 Cloudy 42 5.6 25 -3.8 51 51 WSW 13 20 30.03 1017 10 16 0.00 0.00
10:35 pm 22:35 Cloudy 42 5.8 25 -3.9 50 50 WSW 15 24 30.03 1017 10 16 0.00 0.00
10:55 pm 22:55 Cloudy 42 5.7 26 -3.4 52 52 WSW 12 19 30.03 1017 10 16 0.00 0.00
11:15 pm 23:15 Mostly Cloudy 42 5.6 25 -3.7 52 52 WSW 15 24 30.03 1017 10 16 0.00 0.00
11:35 pm 23:35 Cloudy 42 5.4 25 -3.7 52 52 W 14 22 30.00 1016 10 16 0.00 0.00
11:55 pm 23:55 Cloudy 42 5.4 26 -3.6 53 53 W 17 28 30.00 1016 10 16 0.00 0.00

Powered by AerisWeather